Cloud_Cover
100 68 12 12 5 5 5 5 2 1 4 5 5 5 5 3 5 0 0 0 5 31 66 96 99 100 100 100 100 100 100 100 100 100 100 100 100 100
65 38 5 7 5 5 5 5 0 0 0 0 0 0 5 0 0 3 0 1 5 5 50 100 100 100 100 100 100 100 100 100 100 100 100 100 100 100
59 38 5 5 5 5 4 0 0 0 0 0 0 5 5 4 4 2 3 5 5 5 40 100 100 100 100 100 100 100 100 100 100 100 100 100 100 100
60 6 5 5 5 2 5 0 0 0 0 5 5 5 5 0 2 5 5 0 2 5 94 91 100 92 100 100 100 100 100 100 100 100 100 100 100 100
10 37 5 4 5 5 0 0 0 1 5 5 5 5 5 5 32 13 2 5 5 3 5 5 6 34 51 100 100 97 98 98 100 100 100 100 100 100
6 5 5 5 5 5 2 4 5 5 5 5 20 83 98 68 30 5 5 5 5 5 5 5 43 5 5 5 38 65 89 100 100 100 100 100 100 100
23 5 5 5 1 4 5 5 50 62 58 94 93 100 100 97 69 51 5 5 5 36 95 5 5 5 5 5 5 5 77 100 100 100 100 100 100 100
34 5 4 0 0 3 5 68 83 99 100 93 96 100 95 29 97 57 5 89 100 64 74 21 8 5 5 5 5 78 100 100 100 100 100 100 100 100
10 5 5 0 0 5 5 17 12 30 79 99 78 26 67 78 90 90 87 99 99 66 95 92 5 5 5 5 9 66 72 40 94 100 100 100 100 100
5 5 0 0 5 5 38 95 26 5 5 78 100 100 95 59 100 100 98 88 27 65 90 99 25 23 5 5 5 5 5 89 100 88 100 100 100 100
5 1 0 4 5 94 100 71 5 5 5 5 67 95 99 94 99 100 73 100 92 89 8 96 12 62 95 5 2 2 5 49 99 90 100 100 100 100
5 4 5 11 78 99 100 96 72 5 5 31 5 4 4 5 6 52 100 100 100 86 36 98 77 89 100 5 4 5 5 98 100 93 65 84 63 98
5 5 5 33 100 100 100 75 7 100 100 9 5 5 5 5 5 6 99 100 100 100 70 100 100 99 100 83 5 5 5 32 81 99 99 96 100 100
5 5 12 82 88 80 50 22 98 100 16 5 5 5 76 59 5 59 52 98 93 100 89 100 99 99 100 97 98 8 17 89 67 86 45 90 100 100
5 57 89 35 7 4 2 68 71 5 5 35 90 92 65 11 78 92 14 46 99 44 64 98 100 99 100 100 100 73 86 100 98 76 98 96 100 100
10 29 5 5 4 3 4 5 5 5 87 85 65 95 94 96 97 92 100 95 100 16 86 68 100 100 100 100 100 99 78 100 100 91 100 100 100 100
95 5 0 2 2 5 5 5 5 9 91 82 100 100 96 100 92 95 100 100 100 100 63 5 65 100 99 100 99 95 100 100 86 98 99 99 100 100
14 3 5 5 5 5 5 5 23 96 100 100 100 100 100 100 100 94 100 100 100 99 98 72 95 87 23 35 94 99 100 72 73 100 100 100 100 100
3 5 5 5 5 5 37 95 98 100 100 100 100 100 100 100 100 100 100 100 99 100 94 97 100 100 100 90 100 100 100 79 99 100 100 100 100 100
5 5 5 5 6 67 98 100 96 100 100 100 100 100 100 100 100 100 100 100 100 95 94 72 100 100 100 100 100 100 100 100 100 100 99 100 100 100
5 5 5 22 58 94 100 100 100 100 100 100 100 100 100 100 99 100 100 100 100 98 99 100 99 99 90 82 100 82 89 100 100 100 100 100 100 100
10 58 65 85 89 100 100 100 100 99 100 100 100 100 100 100 100 100 100 100 96 100 100 100 96 100 89 100 100 90 100 95 93 100 100 100 100 100
42 93 100 100 100 100 100 100 100 100 100 100 100 100 100 100 100 100 100 100 100 100 100 100 100 99 96 98 100 100 90 80 63 99 100 100 100 100